Regional Weather Roundup
Issued by NWS

Home | Current Version | Previous Version | Graphics & Text | Print | Product List | Glossary On
Versions: 1 2 3 4 5 6 7 8 9 10 11 12 13 14 15 16 17 18 19 20 21 22 23 24 25 26 27 28 29 30 31 32 33 34 35 36 37 38 39 40 41 42 43 44 45 46 47 48 49 50
840
ASUS43 KDMX 161306
RWRIA

WEATHER ROUNDUP FOR IOWA
NATIONAL WEATHER SERVICE DES MOINES IA
700 AM CST SAT DEC 16 2017

NOTE: "FAIR" INDICATES FEW OR NO CLOUDS BELOW 12,000 FEET WITH NO
SIGNIFICANT WEATHER AND/OR OBSTRUCTIONS TO VISIBILITY.

* - THESE STATIONS ARE NOT NWS STATIONS...THUS NOT UNDER NWS
QUALITY CONTROL.  THEY ALSO DO NOT REPORT WEATHER SUCH
AS PRECIPITATION OR FOG.

IAZ001>003-012>014-020>022-031>034-043>046-161400-
   NORTHWEST IOWA

CITY           SKY/WX    TMP DP  RH WIND       PRES   REMARKS
CARROLL *      CLOUDY    30  21  69 W7        29.75R WCI  23
CHEROKEE *     CLOUDY    25  23  91 CALM      29.74R
DENISON *      CLOUDY    30  21  69 CALM      29.76R
LE MARS *      CLOUDY    23  21  93 N5        29.74R WCI  17
ORANGE CITY *  CLOUDY    30  28  93 NW6       29.73R WCI  24
SHELDON *      CLOUDY    21  19  93 SW3       29.72R
SIOUX CITY     CLOUDY    24  20  84 SE3       29.75R
SPENCER        CLOUDY    24  21  88 W7        29.73R WCI  16
STORM LAKE *   CLOUDY    28  21  74 W9        29.73R WCI  20
$$

IAZ055>058-069>071-079>083-090>094-161400-
   SOUTHWEST IOWA

CITY           SKY/WX    TMP DP  RH WIND       PRES   REMARKS
ATLANTIC *     CLOUDY    28  23  80 SW5       29.77R WCI  23
AUDUBON *      CLOUDY    30  23  74 CALM      29.77R
CLARINDA *       N/A     25  23  93 CALM      29.82R
COUNCIL BLFS * MOCLDY    34  23  64 SW8       29.75F WCI  27
CRESTON *      CLEAR     32  25  74 SW9       29.79R WCI  24
HARLAN  *      CLOUDY    23  19  86 CALM      29.80R
LAMONI         CLOUDY    32  24  72 S6        29.80R WCI  26
RED OAK *      CLOUDY    27  21  80 SW5       29.78S WCI  21
SHENANDOAH *   CLOUDY    32  23  69 SW5       29.80R WCI  27
$$

IAZ047>049-059>061-072>074-084-161400-
   CENTRAL IOWA

CITY           SKY/WX    TMP DP  RH WIND       PRES   REMARKS
AMES           PTCLDY    27  22  81 SW6       29.76R WCI  20
ANKENY *       CLEAR     36  25  64 SW6       29.78R WCI  31
BOONE *        CLOUDY    32  23  69 W6        29.75R WCI  26
CHARITON *     PTCLDY    36  25  64 SW9       29.78R WCI  29
DES MOINES     PTCLDY    35  24  64 SW8       29.78R WCI  29
GRINNELL*      CLEAR     33  25  72 SW15      29.77R WCI  23
KNOXVILLE *    CLEAR     36  23  60 SW9       29.77R WCI  29
MARSHALLTOWN   CLOUDY    27  21  78 W7        29.75R WCI  19
NEWTON *       CLOUDY    32  25  74 SW8       29.77R WCI  25
PELLA *        CLEAR     36  25  66 SW8       29.78R WCI  29
PERRY *          N/A     29  20  68 SW3       29.75R
$$

IAZ004>006-015-016-023>025-035-036-161400-
   NORTH CENTRAL IOWA

CITY           SKY/WX    TMP DP  RH WIND       PRES   REMARKS
ALGONA *       CLOUDY    27  25  93 SW8       29.72R WCI  18
CLARION *      CLOUDY    23  21  93 S6        29.72R WCI  16
ESTHERVILLE    CLOUDY    25  22  88 W8        29.71R WCI  16
FORT DODGE *   CLOUDY    28  22  78 SW5       29.73R WCI  23
MASON CITY     CLOUDY    27  20  75 W9        29.73R WCI  18
FOREST CITY *    N/A     23  21  93 CALM      29.71R
WEBSTER CITY * CLOUDY    25  19  80 SW12      29.72R WCI  14
IOWA FALLS *     N/A     28  22  79 SW5       29.74R WCI  23
$$

IAZ007>011-017>019-026>030-037>042-050>054-066-161400-
   NORTHEAST IOWA

CITY           SKY/WX    TMP DP  RH WIND       PRES   REMARKS
CEDAR RAPIDS   CLOUDY    30  23  75 S3        29.77R
CHARLES CITY * CLOUDY    25  23  93 S7        29.72R WCI  17
CLINTON *      CLEAR     27  22  81 S9        29.81R WCI  18
DECORAH *      CLOUDY    30  23  74 CALM      29.73R
DUBUQUE        CLOUDY    29  22  75 S10       29.76R WCI  20
MONTICELLO *   CLOUDY    28  23  80 SE6       29.77S WCI  22
OELWEIN *      CLOUDY    23  23 100 S6        29.74R WCI  16
WATERLOO       CLOUDY    25  19  78 S3        29.74R
$$

IAZ064-065-067-068-078-161400-
   EAST CENTRAL IOWA

CITY           SKY/WX    TMP DP  RH WIND       PRES   REMARKS
DAVENPORT      CLEAR     34  24  67 S10       29.82R WCI  26
IOWA CITY      CLEAR     29  23  78 CALM      29.81R
MT. PLEASANT * CLEAR     32  24  70 S13       29.82R WCI  23
MUSCATINE *    CLEAR     34  25  69 S10       29.82R WCI  26
QUAD CITIES    CLEAR     33  24  69 CALM      29.81R
$$

IAZ062-063-075>077-085>089-095>099-161400-
   SOUTHEAST IOWA

CITY           SKY/WX    TMP DP  RH WIND       PRES   REMARKS
BURLINGTON     CLEAR     33  25  72 SW10      29.82S WCI  25
FAIRFIELD *    CLEAR     32  23  69 SW9       29.80R WCI  24
FORT MADISON * CLEAR     36  25  64 SW9       29.84R WCI  29
KEOKUK *       CLEAR     34  25  69 SW10      29.84R WCI  26
OSKALOOSA *      N/A     33  25  72 SW12      29.79R WCI  25
OTTUMWA        CLEAR     38  24  57 SW13      29.79R WCI  30
WASHINGTON *   CLEAR     32  27  80 SW13      29.80S WCI  22
$$

ABBREVIATIONS USED IN REMARKS
   TC - TEMPERATURES IN CELSIUS
  WCI - WIND CHILL INDEX
   HX - HEAT INDEX
  VSB - VISIBILITY
$$





USA.gov is the U.S. government's official web portal to all federal, state and local government web resources and services.